This is the latest recevied weather packets stored in our database for station/object K9VSK-9. If no packets are shown the sender has not sent any weather packets the latest 1 day(s).
| Time | Temp. | Humidity | Pressure | Rain* | Wind** | Luminosity | Snow |
|---|---|---|---|---|---|---|---|
| 1778015963 | 12.22° C | 53% | 1010.4 hPa | 0 mm | 2.68 m/s, 275° | - | - |
| 1778015663 | 12.22° C | 54% | 1010.4 hPa | 0 mm | 1.34 m/s, 330° | - | - |
| 1778015362 | 12.22° C | 52% | 1010.5 hPa | 0 mm | 1.34 m/s, 5° | - | - |
| 1778015062 | 12.22° C | 54% | 1010.6 hPa | 0 mm | 2.68 m/s, 360° | - | - |
| 1778014762 | 12.22° C | 55% | 1010.7 hPa | 0 mm | 3.58 m/s, 263° | - | - |
| 1778014462 | 12.22° C | 52% | 1010.9 hPa | 0 mm | 1.34 m/s, 13° | - | - |
| 1778014161 | 12.22° C | 56% | 1010.9 hPa | 0 mm | 4.02 m/s, 17° | - | - |
| 1778013861 | 12.22° C | 54% | 1010.9 hPa | 0 mm | 1.34 m/s, 331° | - | - |
| 1778013562 | 12.22° C | 55% | 1010.9 hPa | 0 mm | 4.47 m/s, 28° | - | - |
| 1778013261 | 12.22° C | 60% | 1011 hPa | 0 mm | 2.24 m/s, 345° | - | - |
| 1778012960 | 11.67° C | 68% | 1011 hPa | 0 mm | 0.89 m/s, 350° | - | - |
| 1778012660 | 11.67° C | 68% | 1011.2 hPa | 0 mm | 3.13 m/s, 280° | - | - |
| 1778012360 | 11.67° C | 69% | 1011.2 hPa | 0 mm | 3.58 m/s, 300° | - | - |
| 1778012059 | 11.67° C | 70% | 1011.2 hPa | 0 mm | 3.58 m/s, 323° | - | - |
| 1778011759 | 11.67° C | 71% | 1011.2 hPa | 0 mm | 2.68 m/s, 273° | - | - |
| 1778011459 | 11.67° C | 70% | 1011.5 hPa | 0 mm | 4.92 m/s, 292° | - | - |
| 1778011158 | 11.67° C | 70% | 1011.5 hPa | 0 mm | 4.92 m/s, 292° | - | - |
| 1778010858 | 11.67° C | 68% | 1011.5 hPa | 0 mm | 3.13 m/s, 290° | - | - |
| 1778010558 | 11.11° C | 69% | 1011.4 hPa | 0 mm | 3.13 m/s, 283° | - | - |
| 1778010258 | 11.11° C | 68% | 1011.4 hPa | 0 mm | 2.68 m/s, 271° | - | - |
| 1778009957 | 11.11° C | 67% | 1011.3 hPa | 0 mm | 4.02 m/s, 275° | - | - |
| 1778009657 | 11.11° C | 68% | 1011.3 hPa | 0 mm | 3.13 m/s, 277° | - | - |
| 1778009357 | 11.11° C | 67% | 1011.3 hPa | 0 mm | 4.02 m/s, 288° | - | - |
| 1778009056 | 11.11° C | 67% | 1011.3 hPa | 0 mm | 4.02 m/s, 288° | - | - |
| 1778008756 | 11.11° C | 66% | 1011.3 hPa | 0 mm | 4.47 m/s, 284° | - | - |
* Rain latest hour (hover to see other rain measurements)
** Current wind speed in m/s (hover to see current wind gust speed)